[[{"header":{"parameterUnit":"m.s-1","parameterCategory":1,"la1":30.2991,"la2":30.254,"lo1":-89.0895,"lo2":-89.0444,"dy":0.0017,"dx":0.0017,"nx":28,"ny":28,"refTime":"2025-09-07T03:00:00:Z","depth":0,"parameterNumber":2,"parameterNumberName":"U-component_of_WINDS"},"data":[0,0,0,0,0,0,0,0,0,0,0,0,0,0,0,0,0,0,0,0,0,0,0,0,0,0,0,0,0,0,0,0,0,0,0,0,0,0,0,0,0,0,0,0,0,0,0,0,0,0,0,0,0,0,0,0,0,0,-2.9026,-2.9026,0,-2.9055,-2.9055,-2.9056,-2.894,-2.8936,-2.8933,-2.893,-2.8961,-2.8965,-2.8969,0,0,0,0,0,0,0,0,0,0,0,0,0,-2.887,-2.8873,-2.9026,-2.9026,-2.9027,-2.9055,-2.9055,-2.9056,-2.894,-2.8936,-2.8932,-2.8928,-2.896,-2.8964,-2.8969,0,0,0,0,0,0,0,0,0,0,0,0,0,-2.8922,-2.8875,-2.9026,-2.8972,-2.8968,-2.9055,-2.9055,-2.9056,-2.8941,-2.8936,-2.8931,-2.8926,-2.8958,-2.8964,-2.897,-2.911,0,0,-2.8988,-2.8991,0,0,0,0,0,0,0,0,-2.892,-2.8928,-2.898,-2.8976,-2.8971,-2.8988,-2.9012,-2.9074,-2.8943,-2.8951,-2.893,-2.8924,-2.8974,-2.8979,-2.8995,-2.9111,-2.9113,-2.8989,-2.8992,-2.8995,-2.8997,0,0,0,0,0,0,0,-2.8916,-2.8926,-2.9037,-2.8981,-2.8976,-2.8947,-2.8949,-2.9023,-2.8991,-2.895,-2.8942,-2.8947,-2.8971,-2.899,-2.8995,-2.9113,-2.8989,-2.8994,-2.8998,-2.9,-2.9345,-2.935,0,0,0,0,0,0,-2.8919,-2.8924,-2.9036,-2.9038,-2.8932,-2.8954,-2.8956,-2.8988,-2.899,-2.8986,-2.8951,-2.8941,-2.8982,-2.8988,-2.8996,-2.9161,-2.8995,-2.9001,-2.9004,-2.934,-2.9346,-2.9352,0,0,0,0,0,0,-2.8917,-2.8931,-2.9035,-2.8979,-2.899,-2.8962,-2.8999,-2.8991,-2.901,-2.8991,-2.8985,-2.8977,-2.8978,-2.8987,-2.9082,-2.916,-2.9003,-2.9009,-2.9333,-2.9342,-2.9349,-2.9492,0,0,0,0,0,0,-2.8913,-2.893,-2.8984,-2.8981,-2.8993,-2.9122,-2.9004,-2.8996,-2.9021,-2.9008,-2.9013,-2.9009,-2.8975,-2.9074,-2.9088,-2.9166,-2.9014,-2.9326,-2.9337,-2.9347,-2.948,-2.9504,-2.9524,0,0,0,0,0,-2.8907,-2.9023,-2.8987,-2.9001,-2.9059,-2.9126,-2.9134,-2.9092,-2.9028,-2.9081,-2.9068,-2.9009,-2.9149,-2.9085,-2.91,-2.918,-2.9321,-2.9334,-2.9346,-2.947,-2.9499,-2.9524,0,0,0,0,0,0,-2.9036,-2.9022,-2.8982,-2.9099,-2.9115,-2.9107,-2.9173,-2.9124,-2.9159,-2.9146,-2.9092,-2.9094,-2.9199,-2.9198,-2.9127,-2.9316,-2.9224,-2.924,-2.9313,-2.9341,-2.9362,-2.9362,-2.9019,0,0,0,0,0,-2.9078,-2.9134,-2.9118,-2.9223,-2.9233,-2.9202,-2.9229,-2.9196,-2.921,-2.9216,-2.921,-2.9227,-2.9274,-2.9307,-2.9349,-2.9478,-2.9478,-2.9541,-2.9563,-2.9581,-2.9597,-2.9665,-2.9694,-2.9393,-2.9393,-2.9393,0,0,-2.9166,-2.9164,-2.9203,-2.9249,-2.9257,-2.9316,-2.9208,-2.9275,-2.9319,-2.9226,-2.9316,-2.9312,-2.9326,-2.9439,-2.9488,-2.9442,-2.9679,-2.9597,-2.9612,-2.9618,-2.9681,-2.971,-2.9735,-2.9402,-2.94,-2.9399,0,0,-2.9356,-2.936,-2.9449,-2.9459,-2.9472,-2.945,-2.9472,-2.947,-2.9464,-2.9553,-2.9485,-2.9535,-2.9618,-2.9631,-2.9649,-2.9842,-2.9789,-2.9857,-2.9974,-3.0042,-3.0065,-3.0086,-3.0157,-3.0183,-2.9872,-2.9872,-2.9872,0,-2.9464,-2.955,-2.9501,-2.9573,-2.9595,-2.9512,-2.9602,-2.9614,-2.9641,-2.9658,-2.9605,-2.9707,-2.9711,-2.9826,-2.9873,-2.9889,-2.9912,-2.9858,-3.0066,-3.0086,-3.0105,-3.0172,-3.0198,-2.988,-2.988,-2.9879,-2.9878,0,-2.9683,-2.9743,-2.9813,-2.9841,-2.987,-2.9951,-2.9914,-2.995,-2.9912,-2.9896,-2.9987,-2.9988,-3.003,-3.0054,-3.0019,-3.0164,-3.0135,-3.0075,-2.9982,-3.0143,-3.0205,-3.023,-2.9893,-2.9889,-2.9887,-2.9885,0,0,-2.9959,-2.9956,-2.9983,-2.9995,-3.0002,-3.0048,-3.0124,-3.0164,-3.0196,-3.0216,-3.028,-3.035,-3.0294,-3.0314,-3.0279,-3.0338,-3.0493,-3.027,-3.027,-3.0314,-3.0654,-3.0702,-3.0732,-3.0456,-3.046,-3.0464,-3.0654,0,-3.0147,-3.0278,-3.0234,-3.0367,-3.0423,-3.0344,-3.041,-3.0422,-3.0408,-3.0453,-3.0436,-3.0489,-3.041,-3.0421,-3.0476,-3.0463,-3.0561,-3.0448,-3.0516,-3.0519,-3.0518,-3.0764,-3.0815,-3.0994,-3.0677,-3.0681,-3.0684,0,-3.0385,-3.0415,-3.0553,-3.0551,-3.0572,-3.0633,-3.0666,-3.0709,-3.072,-3.0706,-3.0728,-3.0679,-3.0754,-3.0658,-3.076,-3.0684,-3.0708,-3.0706,-3.0711,-3.0719,-3.0614,-3.078,-3.105,-3.1078,-3.0722,-3.0719,-3.0716,0,-3.0576,-3.0649,-3.0742,-3.0753,-3.0752,-3.0797,-3.0798,-3.0804,-3.0831,-3.0859,-3.0875,-3.0912,-3.0933,-3.0962,-3.0925,-3.0859,-3.1033,-3.0934,-3.1024,-3.1026,-3.1067,-3.1066,-3.1347,-3.1079,-3.1079,-3.1078,-3.1077,0,-3.0792,-3.0881,-3.0827,-3.0884,-3.098,-3.0929,-3.1025,-3.1018,-3.1023,-3.1078,-3.101,-3.1063,-3.1009,-3.1057,-3.1028,-3.1117,-3.1126,-3.1117,-3.1109,-3.1125,-3.1127,-3.1143,-3.1131,-3.1085,-3.1084,-3.1082,-3.1081,0,-3.1023,-3.099,-3.1086,-3.1076,-3.1075,-3.1147,-3.1138,-3.1191,-3.1171,-3.124,-3.1253,-3.1223,-3.1275,-3.124,-3.1292,-3.1272,-3.139,-3.1363,-3.1387,-3.1381,-3.1474,-3.1467,-3.1778,-3.1817,-3.1521,-3.1524,-3.1526,0,-3.1165,-3.1231,-3.1228,-3.1259,-3.1265,-3.1316,-3.1342,-3.1293,-3.1324,-3.134,-3.1391,-3.1437,-3.1472,-3.1558,-3.1541,-3.158,-3.1555,-3.1661,-3.1561,-3.1575,-3.156,-3.1557,-3.1564,-3.1683,-3.1686,-3.1689,-3.1692,0,-3.1421,-3.1401,-3.1442,-3.1477,-3.1511,-3.1536,-3.1556,-3.1585,-3.1535,-3.1573,-3.1625,-3.1652,-3.1704,-3.1751,-3.1783,-3.1784,-3.1731,-3.1723,-3.1746,-3.1765,-3.1777,-3.1774,-3.1445,-3.1717,-3.1714,-3.1712,-3.1711,-3.171,-3.1613,-3.1668,-3.1675,-3.1722,-3.1731,-3.1751,-3.18,-3.1785,-3.1828,-3.1867,-3.1835,-3.1898,-3.1905,-3.1943,-3.1951,-3.1999,-3.1956,-3.1989,-3.1998,-3.2008,-3.2022,-3.1766,-3.2004,-3.2003,-3.2003,-3.2002,-3.2001,0,-3.1868,-3.1868,-3.1912,-3.1941,-3.1978,-3.1922,-3.1941,-3.1976,-3.2032,-3.2043,-3.2078,-3.2138,-3.2183,-3.2168,-3.2207,-3.2249,-3.2225,-3.2261,-3.2259,-3.2261,-3.2057,-3.2034,-3.228,-3.228,-3.228,-3.228,-3.2279,-3.2279,-3.2005,-3.2096,-3.2077,-3.2171,-3.2169,-3.223,-3.2245,-3.2263,-3.2272,-3.2342,-3.2379,-3.2368,-3.2369,-3.2408,-3.2446,-3.244,-3.2459,-3.2505,-3.2491,-3.2302,-3.2275,-3.2249,-3.2227,-3.2509,-3.2509,-3.269,-3.2692,-3.2693]},{"header":{"parameterUnit":"m.s-1","parameterCategory":1,"la1":30.2991,"la2":30.254,"lo1":-89.0895,"lo2":-89.0444,"dy":0.0017,"dx":0.0017,"nx":28,"ny":28,"refTime":"2025-09-07T03:00:00:Z","depth":0,"parameterNumber":3,"parameterNumberName":"V-component_of_WINDS"},"data":[0,0,0,0,0,0,0,0,0,0,0,0,0,0,0,0,0,0,0,0,0,0,0,0,0,0,0,0,0,0,0,0,0,0,0,0,0,0,0,0,0,0,0,0,0,0,0,0,0,0,0,0,0,0,0,0,0,0,-6.488,-6.488,0,-6.4937,-6.4938,-6.4938,-6.4832,-6.4828,-6.4825,-6.4821,-6.4876,-6.488,-6.4885,0,0,0,0,0,0,0,0,0,0,0,0,0,-6.4672,-6.4676,-6.488,-6.488,-6.4881,-6.4937,-6.4938,-6.4939,-6.4832,-6.4828,-6.4824,-6.482,-6.4874,-6.488,-6.4885,0,0,0,0,0,0,0,0,0,0,0,0,0,-6.4749,-6.4678,-6.488,-6.4835,-6.4832,-6.4937,-6.4938,-6.4939,-6.4833,-6.4828,-6.4823,-6.4818,-6.4872,-6.4879,-6.4886,-6.5036,0,0,-6.4908,-6.4911,0,0,0,0,0,0,0,0,-6.4745,-6.4757,-6.4841,-6.4838,-6.4835,-6.4872,-6.4884,-6.4971,-6.4835,-6.4833,-6.4821,-6.4815,-6.4878,-6.4885,-6.4907,-6.5039,-6.5041,-6.4909,-6.4913,-6.4916,-6.4918,0,0,0,0,0,0,0,-6.474,-6.4754,-6.4902,-6.4842,-6.4838,-6.481,-6.4815,-6.49,-6.4884,-6.4832,-6.4825,-6.4833,-6.4876,-6.49,-6.4907,-6.5042,-6.4908,-6.4915,-6.4919,-6.4922,-6.5297,-6.5303,0,0,0,0,0,0,-6.4741,-6.475,-6.49,-6.4904,-6.4776,-6.4818,-6.4824,-6.4865,-6.4883,-6.4881,-6.4838,-6.4828,-6.4891,-6.4899,-6.4909,-6.5085,-6.4916,-6.4923,-6.4927,-6.5292,-6.5299,-6.5305,0,0,0,0,0,0,-6.4737,-6.4755,-6.4898,-6.4825,-6.4841,-6.4827,-6.4875,-6.4869,-6.4894,-6.4887,-6.4883,-6.4866,-6.4887,-6.4899,-6.5005,-6.5085,-6.4926,-6.4932,-6.5285,-6.5294,-6.5302,-6.5438,0,0,0,0,0,0,-6.4731,-6.4754,-6.4813,-6.4827,-6.4845,-6.4996,-6.488,-6.4874,-6.4907,-6.4895,-6.4913,-6.4911,-6.4884,-6.4995,-6.5012,-6.5092,-6.4938,-6.5278,-6.5289,-6.5299,-6.5426,-6.545,-6.5471,0,0,0,0,0,-6.4724,-6.4848,-6.4816,-6.4835,-6.4919,-6.5001,-6.5011,-6.4978,-6.4914,-6.4971,-6.4967,-6.491,-6.5074,-6.5007,-6.5025,-6.5108,-6.5273,-6.5286,-6.5298,-6.5416,-6.5446,-6.547,0,0,0,0,0,0,-6.4842,-6.4849,-6.4814,-6.4947,-6.4974,-6.4982,-6.5054,-6.501,-6.5055,-6.5042,-6.4998,-6.5003,-6.5117,-6.5123,-6.5049,-6.5253,-6.5162,-6.5179,-6.5246,-6.5273,-6.5295,-6.5291,-6.4944,0,0,0,0,0,-6.4884,-6.4952,-6.4954,-6.5071,-6.5086,-6.5068,-6.5103,-6.5075,-6.5101,-6.5111,-6.5115,-6.514,-6.5197,-6.5235,-6.5287,-6.5427,-6.5428,-6.5492,-6.5515,-6.5533,-6.5548,-6.562,-6.5648,-6.5347,-6.5347,-6.5347,0,0,-6.4971,-6.4983,-6.5028,-6.5095,-6.5113,-6.5182,-6.5079,-6.5156,-6.5207,-6.5123,-6.5223,-6.5227,-6.5252,-6.5375,-6.543,-6.5384,-6.5631,-6.5549,-6.5564,-6.5569,-6.5636,-6.5665,-6.569,-6.5356,-6.5354,-6.5353,0,0,-6.5164,-6.5181,-6.5279,-6.5299,-6.5328,-6.5315,-6.5339,-6.5354,-6.5353,-6.5454,-6.5391,-6.5449,-6.5549,-6.5569,-6.5592,-6.5792,-6.5741,-6.581,-6.5925,-6.5996,-6.602,-6.6041,-6.6111,-6.6136,-6.5825,-6.5825,-6.5826,0,-6.5267,-6.5371,-6.5335,-6.5418,-6.5448,-6.5376,-6.5474,-6.5495,-6.5538,-6.556,-6.5508,-6.563,-6.5642,-6.5768,-6.5817,-6.5839,-6.5863,-6.5807,-6.602,-6.604,-6.6059,-6.6125,-6.6152,-6.5833,-6.5833,-6.5832,-6.5831,0,-6.5496,-6.5569,-6.5645,-6.569,-6.5728,-6.5819,-6.5794,-6.5837,-6.5806,-6.5798,-6.59,-6.5912,-6.5965,-6.5992,-6.5963,-6.6114,-6.6084,-6.6027,-6.5934,-6.6097,-6.6158,-6.6183,-6.5845,-6.5842,-6.584,-6.5838,0,0,-6.5766,-6.579,-6.5818,-6.5837,-6.5863,-6.5917,-6.6002,-6.6055,-6.6092,-6.6124,-6.6193,-6.6279,-6.6225,-6.6252,-6.6223,-6.6286,-6.6441,-6.622,-6.622,-6.626,-6.6607,-6.6649,-6.668,-6.6408,-6.6412,-6.6416,-6.6604,0,-6.5957,-6.6106,-6.6075,-6.6221,-6.6286,-6.6218,-6.6292,-6.6315,-6.6309,-6.6362,-6.6355,-6.6416,-6.6342,-6.6357,-6.6416,-6.641,-6.651,-6.6396,-6.647,-6.6473,-6.6465,-6.6712,-6.6757,-6.6934,-6.6628,-6.6632,-6.6635,0,-6.6199,-6.6242,-6.6394,-6.6408,-6.6434,-6.6502,-6.6546,-6.6599,-6.6622,-6.6613,-6.6643,-6.6602,-6.6684,-6.6591,-6.6703,-6.6626,-6.6655,-6.6656,-6.6662,-6.6667,-6.6564,-6.6722,-6.699,-6.7016,-6.6673,-6.667,-6.6667,0,-6.6379,-6.6474,-6.6577,-6.6596,-6.6615,-6.6663,-6.6673,-6.6691,-6.6725,-6.6763,-6.6783,-6.6831,-6.6857,-6.6893,-6.6865,-6.68,-6.6982,-6.6886,-6.6975,-6.6976,-6.7016,-6.7014,-6.7291,-6.7036,-6.7036,-6.7035,-6.7035,0,-6.6595,-6.6691,-6.6658,-6.6722,-6.6826,-6.6789,-6.6892,-6.6894,-6.691,-6.6971,-6.6915,-6.6973,-6.6933,-6.6987,-6.6965,-6.706,-6.7073,-6.7066,-6.7059,-6.7071,-6.7072,-6.7089,-6.7075,-6.7042,-6.7041,-6.7039,-6.7038,0,-6.6814,-6.6796,-6.6904,-6.6913,-6.6917,-6.6994,-6.7,-6.7058,-6.7048,-6.7125,-6.7141,-6.7125,-6.7186,-6.7161,-6.7225,-6.7211,-6.7332,-6.7309,-6.7325,-6.7319,-6.7409,-6.74,-6.7706,-6.7743,-6.7465,-6.7468,-6.747,0,-6.6953,-6.7024,-6.7042,-6.7079,-6.7093,-6.7154,-6.7188,-6.7153,-6.719,-6.7221,-6.7275,-6.7331,-6.7373,-6.7473,-6.7466,-6.7514,-6.7491,-6.7595,-6.7498,-6.7507,-6.7491,-6.7487,-6.7493,-6.7614,-6.7617,-6.762,-6.7622,0,-6.72,-6.7187,-6.7239,-6.7287,-6.7329,-6.7365,-6.7396,-6.7429,-6.7396,-6.744,-6.7501,-6.7535,-6.76,-6.7656,-6.7698,-6.7706,-6.7658,-6.7653,-6.7675,-6.7688,-6.7694,-6.769,-6.7377,-6.7646,-6.7643,-6.7642,-6.764,-6.7639,-6.7382,-6.7442,-6.7463,-6.7522,-6.7541,-6.7571,-6.7626,-6.7623,-6.7674,-6.7725,-6.7701,-6.7773,-6.7792,-6.7844,-6.7859,-6.7912,-6.7871,-6.7905,-6.7913,-6.7922,-6.7933,-6.7686,-6.792,-6.7919,-6.7919,-6.7918,-6.7918,0,-6.7625,-6.7635,-6.769,-6.7735,-6.7781,-6.7733,-6.7764,-6.7805,-6.7869,-6.7892,-6.7935,-6.8005,-6.8058,-6.8055,-6.8104,-6.8147,-6.8127,-6.8161,-6.8157,-6.8159,-6.7967,-6.7942,-6.8177,-6.8177,-6.8177,-6.8177,-6.8177,-6.8177,-6.7757,-6.7856,-6.7846,-6.7953,-6.7962,-6.8033,-6.8054,-6.8081,-6.8098,-6.818,-6.8224,-6.8222,-6.8234,-6.8283,-6.8329,-6.8326,-6.8346,-6.8389,-6.8378,-6.8199,-6.8173,-6.8149,-6.8125,-6.8394,-6.8394,-6.8565,-6.8567,-6.8568]}]]